Flag Weather past 2 weeks in Chhindwara, Madhya Pradesh, India

Now
59 °F

Haze.


Feels Like: 59 °F
Forecast: 46 / 83 °F
Wind: No wind

Location: Nagpur Sonegaon

Current Time: Nov 25, 2014 at 4:33:42 AM

Latest Report: Nov 25, 2014 at 3:10 AM


Visibility: 2 mi

Pressure: 30.01 "Hg

Humidity: 68%

Dew point: 48 °F

Location of ChhindwaraLocation

Historic Weather in Chhindwara — Graph

°F

Chhindwara temperature yesterday

Maximum temperature yesterday: 86 °F (at 1:10 PM)
Minimum temperature yesterday: 57 °F (at 5:10 AM)
Average temperature yesterday: 72 °F

Past Weeks' High & Low Weather Summary

 TemperatureHumidityPressure
High93 °F (Nov 15, 12:40 PM)100% (Nov 11, 10:10 AM)30.12 "Hg (Nov 11, 10:10 AM)
Low55 °F (Nov 19, 2:10 AM)24% (Nov 18, 2:10 PM)29.86 "Hg (Nov 22, 2:40 PM)
Average76 °F61%29.98 "Hg
* Reported Nov 10 6:10 AM — Nov 25 3:10 AM, Chhindwara, Weather by CustomWeather, © 2014

Note: Actual official high and low records may vary slightly from our data, if they occured in-between our weather recording intervals... More about our weather records

Advertising

Chhindwara weather history for previous 24 hours

 ConditionsComfort  
Time TempWeatherWind HumidityBarometerVisibility
3:10 AM
Nov 25
59 °FHaze.No wind68%30.01 "Hg2 mi
12:10 AM63 °FHaze.No wind59%30.01 "Hg2 mi
10:40 PM
Nov 24
64 °FHaze.No wind56%30.04 "Hg2 mi
9:40 PM64 °FHaze.No wind56%30.04 "Hg2 mi
8:40 PM68 °FHaze.No wind56%30.01 "Hg2 mi
8:10 PM66 °FHaze.No wind56%30.01 "Hg2 mi
7:40 PM68 °FHaze.No wind64%30.01 "Hg2 mi
7:10 PM70 °FHaze.No wind46%29.98 "Hg2 mi
6:40 PM73 °FHaze.No wind61%29.98 "Hg2 mi
6:10 PM75 °FHaze.2 mph61%29.95 "Hg2 mi
5:40 PM79 °FHaze.3 mph61%29.95 "Hg2 mi
4:40 PM84 °FClear.5 mph66%29.92 "Hg4 mi
4:10 PM84 °FClear.6 mph66%29.92 "Hg4 mi
3:40 PM86 °FClear.6 mph66%29.92 "Hg4 mi
3:10 PM86 °FClear.5 mph66%29.92 "Hg4 mi
2:40 PM86 °FClear.5 mph66%29.92 "Hg4 mi
1:40 PM86 °FHaze.3 mph66%29.95 "Hg3 mi
1:10 PM86 °FHaze.5 mph66%29.98 "Hg3 mi
12:40 PM84 °FHaze.3 mph66%29.98 "Hg3 mi
12:10 PM82 °FHaze.6 mph66%30.01 "Hg3 mi
11:40 AM82 °FThunderstorms. Cloudy.2 mph66%30.04 "HgN/A
10:40 AM79 °FThunderstorms. Cloudy.3 mph61%30.07 "HgN/A
9:40 AM73 °FHaze.5 mph65%30.07 "Hg2 mi
9:10 AM70 °FHaze.5 mph60%30.07 "Hg2 mi
8:40 AM68 °FHaze.3 mph60%30.07 "Hg2 mi
7:40 AM63 °FHaze.2 mph59%30.04 "Hg2 mi
7:10 AM59 °FHaze.No wind77%30.01 "Hg2 mi
6:40 AM59 °FHaze.No wind72%30.01 "Hg2 mi
6:10 AM57 °FHaze.No wind82%30.01 "Hg2 mi
5:10 AM57 °FHaze.No wind77%29.95 "Hg2 mi
Weather by CustomWeather, © 2014

See weather overviewHow to use our weather pages